Location: Landeleau
(48.2273°N, 3.7285°W)
Time: 00:23:03
(UTC+00:00)

ATLAS CENTAUR R/B - Pass Details

Date: 30 March 2020
Orbit: 471 x 675 km, 64.7° (Epoch: 30 May)

Event Time Altitude Azimuth Distance (km) Brightness Sun altitude
Rises 23:04:56 0° 327° (NNW) 2,727 5.9 -35.1°
Reaches altitude 10° 23:07:48 10° 347° (NNW) 1,787 4.7 -35.3°
Enters shadow 23:08:20 12° 353° (N) 1,643 4.4 -35.3°
